Location: Bishopstone
(51.0167°N, 1.9000°W)
Time: 10:59:21
(UTC+00:00)

Cosmos 1842 - Pass Details

Date: 16 September 2019
Orbit: 522 x 538 km, 82.5° (Epoch: 19 October)

Event Time Altitude Azimuth Distance (km) Brightness Sun altitude
Rises 19:25:54 0° 345° (NNW) 2,708 7.4 -10.9°
Reaches altitude 10° 19:28:06 10° 340° (NNW) 1,811 6.5 -11.3°
Maximum altitude 19:31:57 48° 266° (W) 708 4.3 -11.8°
Drops below altitude 10° 19:35:45 10° 191° (S) 1,792 5.8 -12.4°
Sets 19:37:56 0° 186° (S) 2,676 6.7 -12.7°
